When you browse on this site, cookies collect data to enhance your experience and personalize the content and advertising you see.
Visit our Privacy Policy to learn more. By continuing to use the site, you agree to this use of cookies and data.
  • In Norway
  • List of Countries
  • For 7 days
  • Water Temperature
  • Satellite Maps
  • Weather Map
  • Weather Widgets
  • user-avatar
    Login

    Hourly Weather Albany

    Today, 18 January, Friday

    Time Temperature Precipitation Wind Pressure Humidity
    00:00 +15°C° 0 mm 2 mps 759 mmHg 75%
    01:00 +15°C° 0 mm 2 mps 759 mmHg 78%
    02:00 +14°C° 0 mm 1 mps 759 mmHg 79%
    03:00 +14°C° 0 mm 1 mps 759 mmHg 80%
    04:00 +13°C° 0 mm 1 mps 759 mmHg 82%
    05:00 +12°C° 0 mm 0 mps 760 mmHg 83%
    06:00 +14°C° 0 mm 0 mps 760 mmHg 74%
    07:00 +18°C° 0 mm 1 mps 760 mmHg 65%
    08:00 +21°C° 0 mm 1 mps 761 mmHg 54%
    09:00 +22°C° 0 mm 1 mps 761 mmHg 49%
    10:00 +24°C° 0 mm 2 mps 761 mmHg 44%
    11:00 +25°C° 0 mm 2 mps 761 mmHg 39%
    12:00 +25°C° 0 mm 3 mps 761 mmHg 40%
    13:00 +26°C° 0 mm 4 mps 761 mmHg 40%
    14:00 +25°C° 0 mm 4 mps 760 mmHg 43%
    15:00 +25°C° 0 mm 4 mps 760 mmHg 46%
    16:00 +23°C° 0 mm 4 mps 760 mmHg 49%
    17:00 +22°C° 0 mm 5 mps 760 mmHg 51%
    18:00 +21°C° 0 mm 4 mps 761 mmHg 57%
    19:00 +19°C° 0 mm 4 mps 761 mmHg 63%
    20:00 +17°C° 0 mm 4 mps 761 mmHg 70%
    21:00 +17°C° 0 mm 4 mps 761 mmHg 73%
    22:00 +15°C° 0 mm 4 mps 761 mmHg 76%
    23:00 +15°C° 0 mm 4 mps 761 mmHg 79%

    Tomorrow, 19 January, Saturday

    Time Temperature Precipitation Wind Pressure Humidity
    00:00 +15°C° 0 mm 4 mps 761 mmHg 81%
    01:00 +14°C° 0 mm 4 mps 761 mmHg 82%
    02:00 +14°C° 0 mm 4 mps 761 mmHg 84%
    03:00 +14°C° 0 mm 4 mps 761 mmHg 85%
    04:00 +14°C° 0 mm 3 mps 761 mmHg 86%
    05:00 +14°C° 0 mm 3 mps 761 mmHg 87%
    06:00 +17°C° 0 mm 3 mps 761 mmHg 77%
    07:00 +19°C° 0 mm 3 mps 761 mmHg 66%
    08:00 +21°C° 0 mm 4 mps 761 mmHg 56%
    09:00 +25°C° 0 mm 3 mps 761 mmHg 48%
    10:00 +28°C° 0 mm 3 mps 761 mmHg 39%
    11:00 +31°C° 0 mm 3 mps 760 mmHg 30%
    12:00 +32°C° 0 mm 4 mps 760 mmHg 32%
    13:00 +32°C° 0 mm 4 mps 760 mmHg 33%
    14:00 +33°C° 0 mm 5 mps 759 mmHg 34%
    15:00 +30°C° 0 mm 5 mps 759 mmHg 40%
    16:00 +29°C° 0 mm 6 mps 758 mmHg 46%
    17:00 +28°C° 0 mm 6 mps 758 mmHg 51%
    18:00 +26°C° 0 mm 5 mps 758 mmHg 59%
    19:00 +23°C° 0 mm 5 mps 759 mmHg 67%
    20:00 +21°C° 0 mm 4 mps 759 mmHg 74%
    21:00 +20°C° 0 mm 4 mps 759 mmHg 77%
    22:00 +20°C° 0 mm 4 mps 759 mmHg 79%
    23:00 +19°C° 0 mm 3 mps 759 mmHg 82%

    Day after tomorrow, 20 January, Sunday

    Time Temperature Precipitation Wind Pressure Humidity
    00:00 +19°C° 0 mm 3 mps 759 mmHg 83%
    01:00 +19°C° 0 mm 3 mps 759 mmHg 85%
    02:00 +18°C° 0 mm 3 mps 758 mmHg 86%
    03:00 +18°C° 0 mm 3 mps 758 mmHg 86%
    04:00 +18°C° 0 mm 3 mps 757 mmHg 85%
    05:00 +19°C° 0 mm 3 mps 757 mmHg 84%
    06:00 +21°C° 0 mm 3 mps 757 mmHg 75%
    07:00 +24°C° 0 mm 3 mps 757 mmHg 66%
    08:00 +26°C° 0 mm 3 mps 757 mmHg 57%
    09:00 +30°C° 0 mm 3 mps 757 mmHg 48%
    10:00 +34°C° 0 mm 3 mps 756 mmHg 39%
    11:00 +38°C° 0 mm 3 mps 756 mmHg 30%
    12:00 +38°C° 0 mm 4 mps 755 mmHg 31%
    13:00 +37°C° 0 mm 4 mps 754 mmHg 33%
    14:00 +37°C° 0 mm 5 mps 754 mmHg 34%
    15:00 +35°C° 0 mm 5 mps 754 mmHg 39%
    16:00 +33°C° 0 mm 4 mps 753 mmHg 44%
    17:00 +30°C° 0 mm 4 mps 753 mmHg 49%
    18:00 +28°C° 0 mm 4 mps 753 mmHg 55%
    19:00 +26°C° 0 mm 3 mps 754 mmHg 61%
    20:00 +24°C° 0 mm 2 mps 754 mmHg 67%
    21:00 +24°C° 0 mm 2 mps 754 mmHg 69%
    22:00 +23°C° 0 mm 2 mps 754 mmHg 72%
    23:00 +23°C° 0 mm 2 mps 754 mmHg 74%

    21 January, Monday

    Time Temperature Precipitation Wind Pressure Humidity
    00:00 +21°C° 0 mm 2 mps 753 mmHg 77%
    01:00 +21°C° 0 mm 2 mps 753 mmHg 81%
    02:00 +20°C° 0 mm 2 mps 752 mmHg 84%
    03:00 +20°C° 0 mm 2 mps 752 mmHg 87%
    04:00 +20°C° 0 mm 2 mps 752 mmHg 89%
    05:00 +19°C° 0 mm 2 mps 752 mmHg 92%
    06:00 +21°C° 0 mm 2 mps 752 mmHg 84%
    07:00 +22°C° 0 mm 3 mps 753 mmHg 77%
    08:00 +25°C° 0 mm 3 mps 753 mmHg 69%
    09:00 +27°C° 0 mm 3 mps 753 mmHg 63%
    10:00 +28°C° 0 mm 3 mps 753 mmHg 56%
    11:00 +30°C° 0 mm 3 mps 753 mmHg 49%
    12:00 +29°C° 0 mm 5 mps 753 mmHg 48%
    13:00 +29°C° 0 mm 6 mps 753 mmHg 47%
    14:00 +28°C° 0 mm 7 mps 753 mmHg 47%
    15:00 +27°C° 0 mm 7 mps 753 mmHg 49%
    16:00 +26°C° 0 mm 6 mps 753 mmHg 51%
    17:00 +24°C° 0 mm 6 mps 754 mmHg 53%
    18:00 +22°C° 0 mm 5 mps 754 mmHg 60%
    19:00 +21°C° 0 mm 4 mps 755 mmHg 67%
    20:00 +20°C° 0 mm 4 mps 755 mmHg 74%
    21:00 +20°C° 0 mm 4 mps 755 mmHg 75%
    22:00 +20°C° 0 mm 4 mps 755 mmHg 77%
    23:00 +20°C° 0 mm 4 mps 755 mmHg 79%

    22 January, Tuesday

    Time Temperature Precipitation Wind Pressure Humidity
    00:00 +20°C° 0.2 mm 4 mps 755 mmHg 81%
    01:00 +19°C° 0.2 mm 4 mps 755 mmHg 83%
    02:00 +19°C° 0.2 mm 4 mps 754 mmHg 85%
    03:00 +19°C° 0.4 mm 4 mps 754 mmHg 86%
    04:00 +19°C° 0.4 mm 4 mps 754 mmHg 87%
    05:00 +19°C° 0.4 mm 5 mps 754 mmHg 88%
    06:00 +19°C° 0.4 mm 5 mps 755 mmHg 87%
    07:00 +19°C° 0.4 mm 5 mps 755 mmHg 86%
    08:00 +19°C° 0.4 mm 6 mps 756 mmHg 86%
    09:00 +20°C° 0.1 mm 6 mps 756 mmHg 82%
    10:00 +21°C° 0.1 mm 6 mps 756 mmHg 78%
    11:00 +21°C° 0.1 mm 6 mps 756 mmHg 75%
    12:00 +21°C° 0 mm 6 mps 755 mmHg 73%
    13:00 +22°C° 0 mm 6 mps 755 mmHg 72%
    14:00 +22°C° 0 mm 7 mps 754 mmHg 71%
    15:00 +22°C° 0 mm 7 mps 754 mmHg 71%
    16:00 +22°C° 0 mm 8 mps 754 mmHg 70%
    17:00 +22°C° 0 mm 8 mps 753 mmHg 70%
    18:00 +21°C° 0 mm 8 mps 753 mmHg 74%
    19:00 +21°C° 0 mm 8 mps 753 mmHg 77%
    20:00 +20°C° 0 mm 7 mps 753 mmHg 81%
    21:00 +20°C° 0 mm 7 mps 753 mmHg 83%
    22:00 +20°C° 0 mm 8 mps 752 mmHg 84%
    23:00 +20°C° 0 mm 8 mps 751 mmHg 85%

    23 January, Wednesday

    Time Temperature Precipitation Wind Pressure Humidity
    00:00 +21°C° 0 mm 6 mps 751 mmHg 86%
    01:00 +21°C° 0 mm 5 mps 750 mmHg 87%
    02:00 +21°C° 0 mm 3 mps 749 mmHg 87%
    03:00 +21°C° 0 mm 3 mps 749 mmHg 89%
    04:00 +20°C° 0 mm 3 mps 749 mmHg 90%
    05:00 +20°C° 0 mm 3 mps 749 mmHg 91%
    06:00 +21°C° 0 mm 3 mps 749 mmHg 81%
    07:00 +22°C° 0 mm 4 mps 749 mmHg 70%
    08:00 +23°C° 0 mm 4 mps 749 mmHg 59%
    09:00 +26°C° 0 mm 5 mps 749 mmHg 48%
    10:00 +27°C° 0 mm 5 mps 748 mmHg 38%
    11:00 +29°C° 0 mm 5 mps 748 mmHg 28%
    12:00 +29°C° 0 mm 6 mps 747 mmHg 27%
    13:00 +29°C° 0 mm 7 mps 747 mmHg 27%
    14:00 +29°C° 0 mm 8 mps 746 mmHg 27%
    15:00 +27°C° 0 mm 9 mps 746 mmHg 33%
    16:00 +26°C° 0 mm 10 mps 745 mmHg 38%
    17:00 +23°C° 0 mm 11 mps 745 mmHg 44%
    18:00 +22°C° 0.1 mm 11 mps 746 mmHg 51%
    19:00 +19°C° 0.1 mm 11 mps 746 mmHg 59%
    20:00 +18°C° 0.1 mm 11 mps 747 mmHg 66%
    21:00 +18°C° 0.1 mm 11 mps 747 mmHg 67%
    22:00 +18°C° 0.1 mm 12 mps 747 mmHg 67%
    23:00 +18°C° 0.1 mm 12 mps 748 mmHg 68%
    Show more